This is the latest recevied weather packets stored in our database for station/object KF0JJO. If no packets are shown the sender has not sent any weather packets the latest 1 day(s).
| Time | Temp. | Humidity | Pressure | Rain* | Wind** | Luminosity | Snow |
|---|---|---|---|---|---|---|---|
| 1778102998 | 8.33° C | 41% | 1047.3 hPa | 0 mm | - | 205 W/m² | - |
| 1778102694 | 8.33° C | 41% | 1047.4 hPa | 0 mm | - | 208 W/m² | - |
| 1778102389 | 8.33° C | 41% | 1047.3 hPa | 0 mm | - | 209 W/m² | - |
| 1778101479 | 7.78° C | 42% | 1047.4 hPa | 0 mm | - | 245 W/m² | - |
| 1778099964 | 7.78° C | 42% | 1047.7 hPa | 0 mm | - | 204 W/m² | - |
| 1778098449 | 7.78° C | 44% | 1047.7 hPa | 0 mm | - | 229 W/m² | - |
| 1778097538 | 7.22° C | 42% | 1047.5 hPa | 0 mm | - | 252 W/m² | - |
| 1778096326 | 7.22° C | 42% | 1047.7 hPa | 0 mm | - | 188 W/m² | - |
| 1778095113 | 7.22° C | 42% | 1047.8 hPa | 0 mm | - | 197 W/m² | - |
| 1778092991 | 7.22° C | 42% | 1047.9 hPa | 0 mm | - | 289 W/m² | - |
| 1778092688 | 7.22° C | 43% | 1047.9 hPa | 0 mm | - | 199 W/m² | - |
| 1778090262 | 6.67° C | 44% | 1048 hPa | 0 mm | - | 287 W/m² | - |
| 1778089959 | 6.11° C | 45% | 1047.9 hPa | 0 mm | - | 222 W/m² | - |
| 1778086325 | 6.11° C | 45% | 1048.3 hPa | 0 mm | - | 235 W/m² | - |
| 1778085111 | 6.11° C | 44% | 1048.3 hPa | 0 mm | - | 205 W/m² | - |
| 1778084807 | 6.11° C | 45% | 1048.3 hPa | 0 mm | - | 199 W/m² | - |
| 1778082992 | 5.56° C | 47% | 1048 hPa | 0 mm | - | 251 W/m² | - |
| 1778081247 | 5.56° C | 46% | 1048 hPa | 0 mm | - | 205 W/m² | - |
| 1778080036 | 5.56° C | 45% | 1047.9 hPa | 0 mm | - | 122 W/m² | - |
| 1778079733 | 5.56° C | 45% | 1048 hPa | 0 mm | - | 170 W/m² | - |
| 1778079430 | 5.56° C | 46% | 1047.9 hPa | 0 mm | - | 159 W/m² | - |
| 1778077312 | 5.56° C | 46% | 1047.9 hPa | 0 mm | - | 180 W/m² | - |
| 1778076102 | 5° C | 48% | 1048 hPa | 0 mm | - | 159 W/m² | - |
| 1778075799 | 5° C | 49% | 1047.9 hPa | 0 mm | - | 154 W/m² | - |
| 1778075495 | 5° C | 49% | 1048.2 hPa | 0 mm | - | 144 W/m² | - |
* Rain latest hour (hover to see other rain measurements)
** Current wind speed in m/s (hover to see current wind gust speed)